Year,Month,Day,Hour,Minute,Value (Times are PST for temperature in C)
2015,07,20,00,00,21.40
2015,07,20,00,01,21.40
2015,07,20,00,02,21.40
2015,07,20,00,03,21.40
2015,07,20,00,04,21.40
2015,07,20,00,05,21.50
2015,07,20,00,06,21.50
2015,07,20,00,07,21.40
2015,07,20,00,08,21.40
2015,07,20,00,09,21.40
2015,07,20,00,10,21.40
2015,07,20,00,11,21.30
2015,07,20,00,12,21.30
2015,07,20,00,13,21.30
2015,07,20,00,14,21.30
2015,07,20,00,15,21.30
2015,07,20,00,16,21.20
2015,07,20,00,17,21.20
2015,07,20,00,18,21.20
2015,07,20,00,19,21.20
2015,07,20,00,20,21.20
2015,07,20,00,21,21.20
2015,07,20,00,22,21.10
2015,07,20,00,23,21.10
2015,07,20,00,24,21.10
2015,07,20,00,25,21.00
2015,07,20,00,26,21.00
2015,07,20,00,27,21.00
2015,07,20,00,28,21.00
2015,07,20,00,29,21.00
2015,07,20,00,30,21.10
2015,07,20,00,31,21.10
2015,07,20,00,32,21.10
2015,07,20,00,33,21.10
2015,07,20,00,34,21.10
2015,07,20,00,35,21.10
2015,07,20,00,36,21.10
2015,07,20,00,37,21.00
2015,07,20,00,38,21.00
2015,07,20,00,39,21.00
2015,07,20,00,40,20.90
2015,07,20,00,41,20.90
2015,07,20,00,42,20.90
2015,07,20,00,43,20.80
2015,07,20,00,44,20.80
2015,07,20,00,45,20.80
2015,07,20,00,46,20.70
2015,07,20,00,47,20.70
2015,07,20,00,48,20.60
2015,07,20,00,49,20.60
2015,07,20,00,50,20.60
2015,07,20,00,51,20.60
2015,07,20,00,52,20.70
2015,07,20,00,53,20.70
2015,07,20,00,54,20.70
2015,07,20,00,55,20.70
2015,07,20,00,56,20.60
2015,07,20,00,57,20.60
2015,07,20,00,58,20.60
2015,07,20,00,59,20.60
2015,07,20,01,00,20.60
2015,07,20,01,01,20.60
2015,07,20,01,02,20.50
2015,07,20,01,03,20.50
2015,07,20,01,04,20.50
2015,07,20,01,05,20.50
2015,07,20,01,06,20.40
2015,07,20,01,07,20.40
2015,07,20,01,08,20.40
2015,07,20,01,09,20.40
2015,07,20,01,10,20.30
2015,07,20,01,11,20.30
2015,07,20,01,12,20.30
2015,07,20,01,13,20.30
2015,07,20,01,14,20.30
2015,07,20,01,15,20.30
2015,07,20,01,16,20.30
2015,07,20,01,17,20.30
2015,07,20,01,18,20.30
2015,07,20,01,19,20.30
2015,07,20,01,20,20.30
2015,07,20,01,21,20.30
2015,07,20,01,22,20.30
2015,07,20,01,23,20.30
2015,07,20,01,24,20.20
2015,07,20,01,25,20.20
2015,07,20,01,26,20.20
2015,07,20,01,27,20.10
2015,07,20,01,28,20.10
2015,07,20,01,29,20.10
2015,07,20,01,30,20.00
2015,07,20,01,31,20.00
2015,07,20,01,32,20.00
2015,07,20,01,33,19.90
2015,07,20,01,34,19.90
2015,07,20,01,35,19.90
2015,07,20,01,36,19.90
2015,07,20,01,37,19.90
2015,07,20,01,38,19.90
2015,07,20,01,39,19.90
2015,07,20,01,40,19.80
2015,07,20,01,41,19.80
2015,07,20,01,42,19.80
2015,07,20,01,43,19.80
2015,07,20,01,44,19.80
2015,07,20,01,45,19.80
2015,07,20,01,46,19.80
2015,07,20,01,47,19.80
2015,07,20,01,48,19.80
2015,07,20,01,49,19.80
2015,07,20,01,50,19.70
2015,07,20,01,51,19.70
2015,07,20,01,52,19.60
2015,07,20,01,53,19.60
2015,07,20,01,54,19.50
2015,07,20,01,55,19.40
2015,07,20,01,56,19.20
2015,07,20,01,57,19.10
2015,07,20,01,58,19.00
2015,07,20,01,59,18.90
2015,07,20,02,00,18.80
2015,07,20,02,01,18.70
2015,07,20,02,02,18.60
2015,07,20,02,03,18.50
2015,07,20,02,04,18.40
2015,07,20,02,05,18.30
2015,07,20,02,06,18.30
2015,07,20,02,07,18.20
2015,07,20,02,08,18.20
2015,07,20,02,09,18.10
2015,07,20,02,10,18.10
2015,07,20,02,11,18.00
2015,07,20,02,12,18.00
2015,07,20,02,13,17.90
2015,07,20,02,14,17.90
2015,07,20,02,15,17.80
2015,07,20,02,16,17.70
2015,07,20,02,17,17.70
2015,07,20,02,18,17.60
2015,07,20,02,19,17.60
2015,07,20,02,20,17.60
2015,07,20,02,21,17.50
2015,07,20,02,22,17.50
2015,07,20,02,23,17.50
2015,07,20,02,24,17.40
2015,07,20,02,25,17.40
2015,07,20,02,26,17.40
2015,07,20,02,27,17.40
2015,07,20,02,28,17.40
2015,07,20,02,29,17.40
2015,07,20,02,30,17.40
2015,07,20,02,31,17.40
2015,07,20,02,32,17.40
2015,07,20,02,33,17.30
2015,07,20,02,34,17.30
2015,07,20,02,35,17.30
2015,07,20,02,36,17.20
2015,07,20,02,37,17.20
2015,07,20,02,38,17.20
2015,07,20,02,39,17.10
2015,07,20,02,40,17.10
2015,07,20,02,41,17.10
2015,07,20,02,42,17.00
2015,07,20,02,43,17.00
2015,07,20,02,44,17.00
2015,07,20,02,45,17.00
2015,07,20,02,46,16.90
2015,07,20,02,47,16.90
2015,07,20,02,48,16.90
2015,07,20,02,49,16.90
2015,07,20,02,50,16.90
2015,07,20,02,51,16.90
2015,07,20,02,52,16.90
2015,07,20,02,53,16.90
2015,07,20,02,54,16.90
2015,07,20,02,55,16.90
2015,07,20,02,56,16.90
2015,07,20,02,57,16.90
2015,07,20,02,58,16.90
2015,07,20,02,59,16.90
2015,07,20,03,00,16.80
2015,07,20,03,01,16.80
2015,07,20,03,02,16.80
2015,07,20,03,03,16.80
2015,07,20,03,04,16.80
2015,07,20,03,05,16.80
2015,07,20,03,06,16.80
2015,07,20,03,07,16.80
2015,07,20,03,08,16.80
2015,07,20,03,09,16.80
2015,07,20,03,10,16.90
2015,07,20,03,11,16.90
2015,07,20,03,12,16.90
2015,07,20,03,13,17.00
2015,07,20,03,14,17.00
2015,07,20,03,15,17.10
2015,07,20,03,16,17.10
2015,07,20,03,17,17.10
2015,07,20,03,18,17.20
2015,07,20,03,19,17.20
2015,07,20,03,20,17.20
2015,07,20,03,21,17.30
2015,07,20,03,22,17.30
2015,07,20,03,23,17.30
2015,07,20,03,24,17.30
2015,07,20,03,25,17.30
2015,07,20,03,26,17.40
2015,07,20,03,27,17.40
2015,07,20,03,28,17.40
2015,07,20,03,29,17.30
2015,07,20,03,30,17.10
2015,07,20,03,31,17.00
2015,07,20,03,32,16.80
2015,07,20,03,33,16.70
2015,07,20,03,34,16.50
2015,07,20,03,35,16.40
2015,07,20,03,36,16.30
2015,07,20,03,37,16.20
2015,07,20,03,38,16.20
2015,07,20,03,39,16.10
2015,07,20,03,40,16.10
2015,07,20,03,41,16.10
2015,07,20,03,42,16.10
2015,07,20,03,43,16.10
2015,07,20,03,44,16.10
2015,07,20,03,45,16.10
2015,07,20,03,46,16.00
2015,07,20,03,47,16.00
2015,07,20,03,48,16.00
2015,07,20,03,49,16.00
2015,07,20,03,50,16.00
2015,07,20,03,51,16.00
2015,07,20,03,52,15.90
2015,07,20,03,53,15.90
2015,07,20,03,54,15.90
2015,07,20,03,55,15.80
2015,07,20,03,56,15.80
2015,07,20,03,57,15.80
2015,07,20,03,58,15.80
2015,07,20,03,59,15.80
2015,07,20,04,00,15.80
2015,07,20,04,01,15.80
2015,07,20,04,02,15.80
2015,07,20,04,03,15.80
2015,07,20,04,04,15.90
2015,07,20,04,05,15.90
2015,07,20,04,06,15.90
2015,07,20,04,07,15.90
2015,07,20,04,08,15.90
2015,07,20,04,09,15.90
2015,07,20,04,10,15.90
2015,07,20,04,11,15.90
2015,07,20,04,12,15.90
2015,07,20,04,13,15.90
2015,07,20,04,14,15.90
2015,07,20,04,15,15.90
2015,07,20,04,16,15.80
2015,07,20,04,17,15.80
2015,07,20,04,18,15.70
2015,07,20,04,19,15.60
2015,07,20,04,20,15.60
2015,07,20,04,21,15.60
2015,07,20,04,22,15.60
2015,07,20,04,23,15.50
2015,07,20,04,24,15.50
2015,07,20,04,25,15.60
2015,07,20,04,26,15.60
2015,07,20,04,27,15.60
2015,07,20,04,28,15.60
2015,07,20,04,29,15.70
2015,07,20,04,30,15.70
2015,07,20,04,31,15.80
2015,07,20,04,32,15.80
2015,07,20,04,33,15.90
2015,07,20,04,34,16.00
2015,07,20,04,35,16.10
2015,07,20,04,36,16.20
2015,07,20,04,37,16.20
2015,07,20,04,38,16.30
2015,07,20,04,39,16.40
2015,07,20,04,40,16.40
2015,07,20,04,41,16.50
2015,07,20,04,42,16.60
2015,07,20,04,43,16.60
2015,07,20,04,44,16.60
2015,07,20,04,45,16.70
2015,07,20,04,46,16.70
2015,07,20,04,47,16.80
2015,07,20,04,48,16.80
2015,07,20,04,49,16.80
2015,07,20,04,50,16.80
2015,07,20,04,51,16.80
2015,07,20,04,52,16.80
2015,07,20,04,53,16.90
2015,07,20,04,54,16.90
2015,07,20,04,55,16.90
2015,07,20,04,56,16.90
2015,07,20,04,57,16.90
2015,07,20,04,58,16.90
2015,07,20,04,59,16.90
2015,07,20,05,00,16.90
2015,07,20,05,01,16.80
2015,07,20,05,02,16.80
2015,07,20,05,03,16.80
2015,07,20,05,04,16.70
2015,07,20,05,05,16.70
2015,07,20,05,06,16.60
2015,07,20,05,07,16.60
2015,07,20,05,08,16.50
2015,07,20,05,09,16.40
2015,07,20,05,10,16.30
2015,07,20,05,11,16.20
2015,07,20,05,12,16.10
2015,07,20,05,13,15.90
2015,07,20,05,14,15.80
2015,07,20,05,15,15.60
2015,07,20,05,16,15.40
2015,07,20,05,17,15.30
2015,07,20,05,18,15.10
2015,07,20,05,19,15.00
2015,07,20,05,20,15.00
2015,07,20,05,21,15.00
2015,07,20,05,22,15.00
2015,07,20,05,23,15.00
2015,07,20,05,24,15.00
2015,07,20,05,25,15.10
2015,07,20,05,26,15.10
2015,07,20,05,27,15.20
2015,07,20,05,28,15.20
2015,07,20,05,29,15.20
2015,07,20,05,30,15.20
2015,07,20,05,31,15.30
2015,07,20,05,32,15.40
2015,07,20,05,33,15.50
2015,07,20,05,34,15.50
2015,07,20,05,35,15.60
2015,07,20,05,36,15.60
2015,07,20,05,37,15.60
2015,07,20,05,38,15.60
2015,07,20,05,39,15.60
2015,07,20,05,40,15.60
2015,07,20,05,41,15.60
2015,07,20,05,42,15.60
2015,07,20,05,43,15.50
2015,07,20,05,44,15.50
2015,07,20,05,45,15.40
2015,07,20,05,46,15.30
2015,07,20,05,47,15.30
2015,07,20,05,48,15.30
2015,07,20,05,49,15.20
2015,07,20,05,50,15.20
2015,07,20,05,51,15.10
2015,07,20,05,52,15.10
2015,07,20,05,53,15.00
2015,07,20,05,54,15.00
2015,07,20,05,55,15.00
2015,07,20,05,56,15.00
2015,07,20,05,57,15.00
2015,07,20,05,58,15.00
2015,07,20,05,59,15.10
2015,07,20,06,00,15.20
2015,07,20,06,01,15.30
2015,07,20,06,02,15.30
2015,07,20,06,03,15.40
2015,07,20,06,04,15.40
2015,07,20,06,05,15.40
2015,07,20,06,06,15.50
2015,07,20,06,07,15.50
2015,07,20,06,08,15.60
2015,07,20,06,09,15.60
2015,07,20,06,10,15.60
2015,07,20,06,11,15.60
2015,07,20,06,12,15.70
2015,07,20,06,13,15.80
2015,07,20,06,14,15.80
2015,07,20,06,15,15.90
2015,07,20,06,16,16.00
2015,07,20,06,17,16.10
2015,07,20,06,18,16.30
2015,07,20,06,19,16.40
2015,07,20,06,20,16.50
2015,07,20,06,21,16.50
2015,07,20,06,22,16.60
2015,07,20,06,23,16.60
2015,07,20,06,24,16.60
2015,07,20,06,25,16.50
2015,07,20,06,26,16.50
2015,07,20,06,27,16.40
2015,07,20,06,28,16.30
2015,07,20,06,29,16.20
2015,07,20,06,30,16.20
2015,07,20,06,31,16.20
2015,07,20,06,32,16.10
2015,07,20,06,33,16.10
2015,07,20,06,34,16.20
2015,07,20,06,35,16.20
2015,07,20,06,36,16.30
2015,07,20,06,37,16.50
2015,07,20,06,38,16.60
2015,07,20,06,39,16.80
2015,07,20,06,40,16.90
2015,07,20,06,41,17.00
2015,07,20,06,42,17.00
2015,07,20,06,43,17.10
2015,07,20,06,44,17.10
2015,07,20,06,45,17.10
2015,07,20,06,46,17.00
2015,07,20,06,47,17.00
2015,07,20,06,48,16.90
2015,07,20,06,49,16.80
2015,07,20,06,50,16.80
2015,07,20,06,51,16.70
2015,07,20,06,52,16.60
2015,07,20,06,53,16.60
2015,07,20,06,54,16.50
2015,07,20,06,55,16.50
2015,07,20,06,56,16.40
2015,07,20,06,57,16.40
2015,07,20,06,58,16.50
2015,07,20,06,59,16.50
2015,07,20,07,00,16.60
2015,07,20,07,01,16.60
2015,07,20,07,02,16.80
2015,07,20,07,03,16.90
2015,07,20,07,04,17.10
2015,07,20,07,05,17.30
2015,07,20,07,06,17.50
2015,07,20,07,07,17.70
2015,07,20,07,08,18.00
2015,07,20,07,09,18.20
2015,07,20,07,10,18.40
2015,07,20,07,11,18.60
2015,07,20,07,12,18.80
2015,07,20,07,13,18.90
2015,07,20,07,14,19.10
2015,07,20,07,15,19.10
2015,07,20,07,16,19.20
2015,07,20,07,17,19.30
2015,07,20,07,18,19.30
2015,07,20,07,19,19.20
2015,07,20,07,20,19.20
2015,07,20,07,21,19.20
2015,07,20,07,22,19.20
2015,07,20,07,23,19.20
2015,07,20,07,24,19.20
2015,07,20,07,25,19.20
2015,07,20,07,26,19.20
2015,07,20,07,27,19.20
2015,07,20,07,28,19.20
2015,07,20,07,29,19.20
2015,07,20,07,30,19.20
2015,07,20,07,31,19.20
2015,07,20,07,32,19.20
2015,07,20,07,33,19.20
2015,07,20,07,34,19.10
2015,07,20,07,35,19.10
2015,07,20,07,36,19.10
2015,07,20,07,37,19.10
2015,07,20,07,38,19.10
2015,07,20,07,39,19.10
2015,07,20,07,40,19.10
2015,07,20,07,41,19.20
2015,07,20,07,42,19.20
2015,07,20,07,43,19.20
2015,07,20,07,44,19.20
2015,07,20,07,45,19.30
2015,07,20,07,46,19.30
2015,07,20,07,47,19.30
2015,07,20,07,48,19.30
2015,07,20,07,49,19.30
2015,07,20,07,50,19.20
2015,07,20,07,51,19.20
2015,07,20,07,52,19.20
2015,07,20,07,53,19.30
2015,07,20,07,54,19.30
2015,07,20,07,55,19.30
2015,07,20,07,56,19.40
2015,07,20,07,57,19.40
2015,07,20,07,58,19.40
2015,07,20,07,59,19.30
2015,07,20,08,00,19.20
2015,07,20,08,01,19.20
2015,07,20,08,02,19.10
2015,07,20,08,03,19.10
2015,07,20,08,04,19.10
2015,07,20,08,05,19.10
2015,07,20,08,06,19.10
2015,07,20,08,07,19.00
2015,07,20,08,08,19.00
2015,07,20,08,09,19.00
2015,07,20,08,10,19.00
2015,07,20,08,11,19.00
2015,07,20,08,12,18.90
2015,07,20,08,13,18.90
2015,07,20,08,14,18.90
2015,07,20,08,15,19.00
2015,07,20,08,16,19.10
2015,07,20,08,17,19.10
2015,07,20,08,18,19.10
2015,07,20,08,19,19.20
2015,07,20,08,20,19.30
2015,07,20,08,21,19.30
2015,07,20,08,22,19.30
2015,07,20,08,23,19.30
2015,07,20,08,24,19.30
2015,07,20,08,25,19.40
2015,07,20,08,26,19.40
2015,07,20,08,27,19.40
2015,07,20,08,28,19.40
2015,07,20,08,29,19.30
2015,07,20,08,30,19.30
2015,07,20,08,31,19.30
2015,07,20,08,32,19.30
2015,07,20,08,33,19.30
2015,07,20,08,34,19.40
2015,07,20,08,35,19.40
2015,07,20,08,36,19.40
2015,07,20,08,37,19.50
2015,07,20,08,38,19.40
2015,07,20,08,39,19.50
2015,07,20,08,40,19.60
2015,07,20,08,41,19.60
2015,07,20,08,42,19.60
2015,07,20,08,43,19.50
2015,07,20,08,44,19.50
2015,07,20,08,45,19.60
2015,07,20,08,46,19.70
2015,07,20,08,47,19.80
2015,07,20,08,48,19.80
2015,07,20,08,49,19.90
2015,07,20,08,50,19.90
2015,07,20,08,51,19.90
2015,07,20,08,52,19.80
2015,07,20,08,53,19.80
2015,07,20,08,54,19.70
2015,07,20,08,55,19.70
2015,07,20,08,56,19.80
2015,07,20,08,57,19.80
2015,07,20,08,58,19.80
2015,07,20,08,59,19.90
2015,07,20,09,00,19.90
2015,07,20,09,01,19.90
2015,07,20,09,02,19.80
2015,07,20,09,03,19.80
2015,07,20,09,04,19.80
2015,07,20,09,05,19.80
2015,07,20,09,06,19.80
2015,07,20,09,07,19.80
2015,07,20,09,08,19.90
2015,07,20,09,09,19.90
2015,07,20,09,10,20.00
2015,07,20,09,11,20.00
2015,07,20,09,12,20.00
2015,07,20,09,13,20.00
2015,07,20,09,14,20.00
2015,07,20,09,15,20.10
2015,07,20,09,16,20.10
2015,07,20,09,17,20.00
2015,07,20,09,18,19.90
2015,07,20,09,19,19.90
2015,07,20,09,20,19.90
2015,07,20,09,21,20.00
2015,07,20,09,22,20.10
2015,07,20,09,23,20.10
2015,07,20,09,24,20.20
2015,07,20,09,25,20.30
2015,07,20,09,26,20.30
2015,07,20,09,27,20.40
2015,07,20,09,28,20.50
2015,07,20,09,29,20.60
2015,07,20,09,30,20.60
2015,07,20,09,31,20.60
2015,07,20,09,32,20.70
2015,07,20,09,33,20.60
2015,07,20,09,34,20.60
2015,07,20,09,35,20.70
2015,07,20,09,36,20.60
2015,07,20,09,37,20.60
2015,07,20,09,38,20.70
2015,07,20,09,39,20.70
2015,07,20,09,40,20.70
2015,07,20,09,41,20.60
2015,07,20,09,42,20.40
2015,07,20,09,43,20.40
2015,07,20,09,44,20.50
2015,07,20,09,45,20.60
2015,07,20,09,46,20.60
2015,07,20,09,47,20.60
2015,07,20,09,48,20.60
2015,07,20,09,49,20.70
2015,07,20,09,50,20.80
2015,07,20,09,51,20.80
2015,07,20,09,52,20.80
2015,07,20,09,53,20.80
2015,07,20,09,54,20.70
2015,07,20,09,55,20.60
2015,07,20,09,56,20.50
2015,07,20,09,57,20.50
2015,07,20,09,58,20.40
2015,07,20,09,59,20.30
2015,07,20,10,00,20.20
2015,07,20,10,01,20.30
2015,07,20,10,02,20.30
2015,07,20,10,03,20.30
2015,07,20,10,04,20.20
2015,07,20,10,05,20.20
2015,07,20,10,06,20.30
2015,07,20,10,07,20.50
2015,07,20,10,08,20.60
2015,07,20,10,09,20.60
2015,07,20,10,10,20.40
2015,07,20,10,11,20.40
2015,07,20,10,12,20.50
2015,07,20,10,13,20.50
2015,07,20,10,14,20.30
2015,07,20,10,15,20.20
2015,07,20,10,16,20.20
2015,07,20,10,17,20.10
2015,07,20,10,18,20.10
2015,07,20,10,19,20.10
2015,07,20,10,20,20.10
2015,07,20,10,21,20.00
2015,07,20,10,22,19.90
2015,07,20,10,23,20.00
2015,07,20,10,24,20.10
2015,07,20,10,25,20.00
2015,07,20,10,26,20.00
2015,07,20,10,27,20.10
2015,07,20,10,28,20.20
2015,07,20,10,29,20.30
2015,07,20,10,30,20.30
2015,07,20,10,31,20.30
2015,07,20,10,32,20.20
2015,07,20,10,33,20.20
2015,07,20,10,34,20.50
2015,07,20,10,35,20.70
2015,07,20,10,36,20.70
2015,07,20,10,37,20.70
2015,07,20,10,38,20.60
2015,07,20,10,39,20.50
2015,07,20,10,40,20.60
2015,07,20,10,41,20.60
2015,07,20,10,42,20.50
2015,07,20,10,43,20.40
2015,07,20,10,44,20.40
2015,07,20,10,45,20.60
2015,07,20,10,46,20.70
2015,07,20,10,47,20.70
2015,07,20,10,48,20.70
2015,07,20,10,49,20.50
2015,07,20,10,50,20.60
2015,07,20,10,51,20.60
2015,07,20,10,52,20.70
2015,07,20,10,53,20.70
2015,07,20,10,54,20.90
2015,07,20,10,55,21.00
2015,07,20,10,56,20.90
2015,07,20,10,57,21.00
2015,07,20,10,58,20.90
2015,07,20,10,59,20.90
2015,07,20,11,00,20.80
2015,07,20,11,01,20.70
2015,07,20,11,02,20.70
2015,07,20,11,03,20.60
2015,07,20,11,04,20.60
2015,07,20,11,05,20.50
2015,07,20,11,06,20.50
2015,07,20,11,07,20.50
2015,07,20,11,08,20.60
2015,07,20,11,09,20.80
2015,07,20,11,10,20.80
2015,07,20,11,11,20.80
2015,07,20,11,12,20.90
2015,07,20,11,13,21.00
2015,07,20,11,14,21.10
2015,07,20,11,15,21.00
2015,07,20,11,16,21.10
2015,07,20,11,17,21.20
2015,07,20,11,18,21.20
2015,07,20,11,19,21.20
2015,07,20,11,20,21.10
2015,07,20,11,21,21.00
2015,07,20,11,22,20.90
2015,07,20,11,23,20.90
2015,07,20,11,24,21.00
2015,07,20,11,25,21.10
2015,07,20,11,26,21.20
2015,07,20,11,27,21.20
2015,07,20,11,28,21.20
2015,07,20,11,29,21.20
2015,07,20,11,30,21.30
2015,07,20,11,31,21.30
2015,07,20,11,32,21.30
2015,07,20,11,33,21.20
2015,07,20,11,34,21.00
2015,07,20,11,35,20.90
2015,07,20,11,36,20.90
2015,07,20,11,37,20.80
2015,07,20,11,38,20.80
2015,07,20,11,39,20.90
2015,07,20,11,40,20.80
2015,07,20,11,41,20.80
2015,07,20,11,42,20.80
2015,07,20,11,43,20.90
2015,07,20,11,44,21.00
2015,07,20,11,45,21.00
2015,07,20,11,46,20.90
2015,07,20,11,47,21.00
2015,07,20,11,48,21.10
2015,07,20,11,49,21.30
2015,07,20,11,50,21.30
2015,07,20,11,51,21.20
2015,07,20,11,52,21.10
2015,07,20,11,53,21.20
2015,07,20,11,54,21.20
2015,07,20,11,55,21.10
2015,07,20,11,56,20.90
2015,07,20,11,57,20.90
2015,07,20,11,58,20.90
2015,07,20,11,59,20.90
2015,07,20,12,00,20.80
2015,07,20,12,01,20.80
2015,07,20,12,02,20.80
2015,07,20,12,03,20.90
2015,07,20,12,04,21.00
2015,07,20,12,05,21.10
2015,07,20,12,06,21.10
2015,07,20,12,07,21.20
2015,07,20,12,08,21.20
2015,07,20,12,09,21.20
2015,07,20,12,10,21.10
2015,07,20,12,11,21.10
2015,07,20,12,12,21.10
2015,07,20,12,13,21.00
2015,07,20,12,14,20.90
2015,07,20,12,15,20.90
2015,07,20,12,16,20.90
2015,07,20,12,17,21.10
2015,07,20,12,18,21.30
2015,07,20,12,19,21.40
2015,07,20,12,20,21.30
2015,07,20,12,21,21.20
2015,07,20,12,22,21.00
2015,07,20,12,23,20.90
2015,07,20,12,24,21.00
2015,07,20,12,25,20.90
2015,07,20,12,26,21.00
2015,07,20,12,27,21.10
2015,07,20,12,28,21.20
2015,07,20,12,29,21.20
2015,07,20,12,30,21.40
2015,07,20,12,31,21.70
2015,07,20,12,32,21.80
2015,07,20,12,33,21.80
2015,07,20,12,34,21.80
2015,07,20,12,35,21.80
2015,07,20,12,36,21.60
2015,07,20,12,37,21.60
2015,07,20,12,38,21.60
2015,07,20,12,39,21.60
2015,07,20,12,40,21.50
2015,07,20,12,41,21.40
2015,07,20,12,42,21.20
2015,07,20,12,43,21.10
2015,07,20,12,44,21.20
2015,07,20,12,45,21.20
2015,07,20,12,46,21.40
2015,07,20,12,47,21.40
2015,07,20,12,48,21.40
2015,07,20,12,49,21.40
2015,07,20,12,50,21.40
2015,07,20,12,51,21.20
2015,07,20,12,52,21.30
2015,07,20,12,53,21.30
2015,07,20,12,54,21.30
2015,07,20,12,55,21.20
2015,07,20,12,56,21.10
2015,07,20,12,57,21.00
2015,07,20,12,58,21.00
2015,07,20,12,59,20.80
2015,07,20,13,00,20.80
2015,07,20,13,01,20.80
2015,07,20,13,02,21.00
2015,07,20,13,03,21.00
2015,07,20,13,04,21.00
2015,07,20,13,05,21.10
2015,07,20,13,06,21.10
2015,07,20,13,07,21.00
2015,07,20,13,08,21.00
2015,07,20,13,09,21.00
2015,07,20,13,10,21.00
2015,07,20,13,11,21.10
2015,07,20,13,12,21.10
2015,07,20,13,13,21.30
2015,07,20,13,14,21.30
2015,07,20,13,15,21.20
2015,07,20,13,16,21.20
2015,07,20,13,17,21.20
2015,07,20,13,18,21.40
2015,07,20,13,19,21.40
2015,07,20,13,20,21.40
2015,07,20,13,21,21.50
2015,07,20,13,22,21.40
2015,07,20,13,23,21.30
2015,07,20,13,24,21.50
2015,07,20,13,25,21.60
2015,07,20,13,26,21.70
2015,07,20,13,27,21.70
2015,07,20,13,28,21.60
2015,07,20,13,29,21.60
2015,07,20,13,30,21.60
2015,07,20,13,31,21.60
2015,07,20,13,32,21.50
2015,07,20,13,33,21.60
2015,07,20,13,34,21.50
2015,07,20,13,35,21.50
2015,07,20,13,36,21.60
2015,07,20,13,37,21.60
2015,07,20,13,38,21.70
2015,07,20,13,39,21.80
2015,07,20,13,40,21.80
2015,07,20,13,41,21.80
2015,07,20,13,42,21.80
2015,07,20,13,43,21.80
2015,07,20,13,44,21.80
2015,07,20,13,45,21.80
2015,07,20,13,46,21.70
2015,07,20,13,47,21.80
2015,07,20,13,48,21.80
2015,07,20,13,49,21.80
2015,07,20,13,50,21.80
2015,07,20,13,51,22.00
2015,07,20,13,52,22.00
2015,07,20,13,53,21.80
2015,07,20,13,54,21.70
2015,07,20,13,55,21.60
2015,07,20,13,56,21.80
2015,07,20,13,57,21.80
2015,07,20,13,58,21.80
2015,07,20,13,59,21.80
2015,07,20,14,00,21.80
2015,07,20,14,01,21.80
2015,07,20,14,02,21.80
2015,07,20,14,03,21.70
2015,07,20,14,04,21.60
2015,07,20,14,05,21.50
2015,07,20,14,06,21.50
2015,07,20,14,07,21.50
2015,07,20,14,08,21.60
2015,07,20,14,09,21.50
2015,07,20,14,10,21.70
2015,07,20,14,11,21.80
2015,07,20,14,12,21.90
2015,07,20,14,13,22.00
2015,07,20,14,14,22.10
2015,07,20,14,15,22.10
2015,07,20,14,16,22.10
2015,07,20,14,17,22.00
2015,07,20,14,18,21.90
2015,07,20,14,19,21.90
2015,07,20,14,20,21.80
2015,07,20,14,21,22.00
2015,07,20,14,22,21.80
2015,07,20,14,23,21.70
2015,07,20,14,24,21.50
2015,07,20,14,25,21.60
2015,07,20,14,26,21.70
2015,07,20,14,27,21.70
2015,07,20,14,28,21.70
2015,07,20,14,29,21.50
2015,07,20,14,30,21.50
2015,07,20,14,31,21.30
2015,07,20,14,32,21.20
2015,07,20,14,33,21.20
2015,07,20,14,34,21.30
2015,07,20,14,35,21.40
2015,07,20,14,36,21.40
2015,07,20,14,37,21.30
2015,07,20,14,38,21.20
2015,07,20,14,39,21.20
2015,07,20,14,40,21.30
2015,07,20,14,41,21.40
2015,07,20,14,42,21.40
2015,07,20,14,43,21.40
2015,07,20,14,44,21.60
2015,07,20,14,45,21.70
2015,07,20,14,46,21.80
2015,07,20,14,47,21.90
2015,07,20,14,48,21.90
2015,07,20,14,49,21.80
2015,07,20,14,50,21.70
2015,07,20,14,51,21.60
2015,07,20,14,52,21.60
2015,07,20,14,53,21.60
2015,07,20,14,54,21.70
2015,07,20,14,55,21.80
2015,07,20,14,56,21.80
2015,07,20,14,57,21.80
2015,07,20,14,58,21.80
2015,07,20,14,59,21.80
2015,07,20,15,00,21.90
2015,07,20,15,01,22.10
2015,07,20,15,02,22.20
2015,07,20,15,03,22.40
2015,07,20,15,04,22.60
2015,07,20,15,05,22.70
2015,07,20,15,06,22.60
2015,07,20,15,07,22.50
2015,07,20,15,08,22.50
2015,07,20,15,09,22.40
2015,07,20,15,10,22.30
2015,07,20,15,11,22.20
2015,07,20,15,12,22.10
2015,07,20,15,13,22.10
2015,07,20,15,14,22.10
2015,07,20,15,15,22.10
2015,07,20,15,16,22.20
2015,07,20,15,17,22.10
2015,07,20,15,18,22.10
2015,07,20,15,19,22.10
2015,07,20,15,20,22.10
2015,07,20,15,21,22.00
2015,07,20,15,22,22.00
2015,07,20,15,23,22.00
2015,07,20,15,24,21.80
2015,07,20,15,25,21.80
2015,07,20,15,26,21.80
2015,07,20,15,27,21.80
2015,07,20,15,28,21.90
2015,07,20,15,29,21.90
2015,07,20,15,30,22.00
2015,07,20,15,31,22.10
2015,07,20,15,32,22.30
2015,07,20,15,33,22.30
2015,07,20,15,34,22.30
2015,07,20,15,35,22.20
2015,07,20,15,36,22.00
2015,07,20,15,37,21.90
2015,07,20,15,38,21.90
2015,07,20,15,39,21.80
2015,07,20,15,40,21.80
2015,07,20,15,41,21.70
2015,07,20,15,42,21.80
2015,07,20,15,43,21.80
2015,07,20,15,44,21.90
2015,07,20,15,45,21.90
2015,07,20,15,46,21.90
2015,07,20,15,47,22.00
2015,07,20,15,48,22.10
2015,07,20,15,49,22.10
2015,07,20,15,50,22.20
2015,07,20,15,51,22.30
2015,07,20,15,52,22.30
2015,07,20,15,53,22.30
2015,07,20,15,54,22.30
2015,07,20,15,55,22.10
2015,07,20,15,56,22.10
2015,07,20,15,57,21.90
2015,07,20,15,58,21.80
2015,07,20,15,59,21.60
2015,07,20,16,00,21.50
2015,07,20,16,01,21.40
2015,07,20,16,02,21.40
2015,07,20,16,03,21.30
2015,07,20,16,04,21.40
2015,07,20,16,05,21.40
2015,07,20,16,06,21.50
2015,07,20,16,07,21.70
2015,07,20,16,08,21.70
2015,07,20,16,09,21.70
2015,07,20,16,10,21.70
2015,07,20,16,11,21.70
2015,07,20,16,12,21.70
2015,07,20,16,13,21.60
2015,07,20,16,14,21.50
2015,07,20,16,15,21.30
2015,07,20,16,16,21.20
2015,07,20,16,17,21.30
2015,07,20,16,18,21.20
2015,07,20,16,19,21.20
2015,07,20,16,20,21.20
2015,07,20,16,21,21.20
2015,07,20,16,22,21.20
2015,07,20,16,23,21.20
2015,07,20,16,24,21.20
2015,07,20,16,25,21.30
2015,07,20,16,26,21.40
2015,07,20,16,27,21.40
2015,07,20,16,28,21.50
2015,07,20,16,29,21.50
2015,07,20,16,30,21.40
2015,07,20,16,31,21.40
2015,07,20,16,32,21.40
2015,07,20,16,33,21.30
2015,07,20,16,34,21.30
2015,07,20,16,35,21.30
2015,07,20,16,36,21.30
2015,07,20,16,37,21.30
2015,07,20,16,38,21.40
2015,07,20,16,39,21.40
2015,07,20,16,40,21.50
2015,07,20,16,41,21.60
2015,07,20,16,42,21.70
2015,07,20,16,43,21.70
2015,07,20,16,44,21.70
2015,07,20,16,45,21.70
2015,07,20,16,46,21.70
2015,07,20,16,47,21.70
2015,07,20,16,48,21.80
2015,07,20,16,49,21.80
2015,07,20,16,50,21.80
2015,07,20,16,51,21.80
2015,07,20,16,52,21.90
2015,07,20,16,53,22.00
2015,07,20,16,54,21.70
2015,07,20,16,55,21.30
2015,07,20,16,56,21.00
2015,07,20,16,57,20.80
2015,07,20,16,58,20.90
2015,07,20,16,59,20.90
2015,07,20,17,00,20.80
2015,07,20,17,01,20.90
2015,07,20,17,02,21.00
2015,07,20,17,03,21.00
2015,07,20,17,04,21.10
2015,07,20,17,05,21.10
2015,07,20,17,06,21.10
2015,07,20,17,07,21.20
2015,07,20,17,08,21.40
2015,07,20,17,09,21.60
2015,07,20,17,10,21.60
2015,07,20,17,11,21.60
2015,07,20,17,12,21.50
2015,07,20,17,13,21.40
2015,07,20,17,14,21.40
2015,07,20,17,15,21.30
2015,07,20,17,16,21.30
2015,07,20,17,17,21.30
2015,07,20,17,18,21.30
2015,07,20,17,19,21.30